Home   Weather   Cumberland County   Past weeks

Flag for Canada Past Weather in Cumberland County, Nova Scotia, Canada — Yesterday and Last 2 Weeks

Now
48 °F

Cool.


Feels Like: 45 °F
Forecast: 42 / 55 °F
Wind: 7 mph from Northwest

Location: Kentville

Current Time: Sep 25, 2016 at 11:00:40 PM

Latest Report: Sep 25, 2016 at 10:00 PM


Visibility: N/A

Pressure: 29.97 "Hg

Humidity: 72%

Dew Point: 39 °F

Location of Cumberland CountyLocation

Past Weather in Cumberland County — Graph

°F

Cumberland County Temperature Yesterday

Maximum temperature yesterday: 57 °F (at 1:00 PM)
Minimum temperature yesterday: 44 °F (at 7:00 AM)
Average temperature yesterday: 50 °F

High & Low Weather Summary for the Past Weeks

 TemperatureHumidityPressure
High84 °F (Sep 11, 2:00 PM)100% (Sep 20, 4:00 AM)30.35 "Hg (Sep 20, 4:00 AM)
Low40 °F (Sep 16, 7:00 AM)33% (Sep 13, 3:00 PM)29.74 "Hg (Sep 11, 5:00 PM)
Average61 °F74%30.06 "Hg
* Reported Sep 10 10:00 PM — Sep 25 10:00 PM, Cumberland County, Weather by CustomWeather, © 2016

Note: Actual official high and low records may vary slightly from our data, if they occured in-between our weather recording intervals... More about our weather records

Advertising

Cumberland County Weather History for the Previous 24 Hours

Scroll right to see more
 ConditionsComfort  
Time TempWeatherWind HumidityBarometerVisibility
10:00 PM
Sun, Sep 25
48 °FCool.7 mph72%29.97 "HgN/A
9:00 PM47 °FCool.3 mph76%29.96 "HgN/A
8:00 PM47 °FCool.3 mph74%29.93 "HgN/A
7:00 PM50 °FCool.8 mph63%29.92 "HgN/A
6:00 PM51 °FCool.8 mph62%29.90 "HgN/A
5:00 PM53 °FCool.7 mph62%29.88 "HgN/A
4:00 PM54 °FCool.8 mph50%29.87 "HgN/A
3:00 PM52 °FCool.7 mph54%29.87 "HgN/A
2:00 PM53 °FCool.9 mph56%29.88 "HgN/A
1:00 PM51 °FCool.10 mph58%29.88 "HgN/A
12:00 PM51 °FCool.12 mph54%29.88 "HgN/A
11:00 AM49 °FCool.12 mph60%29.87 "HgN/A
10:00 AM47 °FCool.9 mph69%29.88 "HgN/A
9:00 AM46 °FCool.8 mph75%29.88 "HgN/A
8:00 AM43 °FQuite cool.6 mph83%29.88 "HgN/A
7:00 AM42 °FQuite cool.3 mph83%29.87 "HgN/A
6:00 AM42 °FQuite cool.3 mph81%29.86 "HgN/A
5:00 AM44 °FQuite cool.3 mph77%29.86 "HgN/A
4:00 AM44 °FQuite cool.5 mph70%29.86 "HgN/A
3:00 AM44 °FQuite cool.6 mph78%29.87 "HgN/A
2:00 AM43 °FQuite cool.6 mph81%29.88 "HgN/A
1:00 AM43 °FQuite cool.6 mph84%29.88 "HgN/A
12:00 AM46 °FCool.1 mph78%29.89 "HgN/A
11:00 PM
Sat, Sep 24
46 °FCool.5 mph75%29.91 "HgN/A
Weather by CustomWeather, © 2016

See weather overviewHow to use our weather pages